星链-31622 (STARLINK-31622 )

导读

STARLINK-31622是美国星链计划中的卫星,于北京时间2024年4月10日8时成功发射,是SpaceX打造的星链卫星互联网星座组网任务的一部分。星链旨在为全球用户提供低延迟、高速率的宽带互联网接入服务,该卫星入轨后,将进一步扩充星链星座的在轨规模,提升星座覆盖与服务能力。

基本信息
目录编号:
59456
目录名称:
STARLINK-31622
国际标识:
2024-068B
轨道中心:
EARTH
卫星名称:
星链-31622
卫星全名:
星链-31622 (STARLINK-31622 )
卫星状态:
在轨 (已飞行795 天)
发射日期:
2024-04-10 UTC
国别 :
美国 (US)
星等 :
--
轨道信息
数据来源 国际轨道数据
星历时间: 2026-06-13T18:30:03+0800
1天前
查看轨道信息
半长轴: 6861.177km
偏心率: 0.0000936
轨道倾角: 43.000°
近地点辐角 286.239°
升交点赤经 214.000°
平近点角 73.836°
近地点: 482.397km
远地点: 483.683km
周期: 94.267分钟
每日圈数: 15.275832
详细信息
固有亮度:
5
最大亮度:
1.5
卫星平台:
Starlink v2.0 mini
覆盖范围:
全球
运营商:
太空探索技术公司
运营商所在国:
美国
制造商(研发单位):
太空探索技术公司
制造商所在国:
美国
使用方式:
暂无
卫星简介
星链(Starlink)计划是由太空探索技术公司(SpaceX)提出的一个巨型低轨卫星互联网星座项目,计划在2019年至2024年间在太空搭建由约1.2万颗卫星组成的“星链”网络,其中1584颗将部署在地球上空550千米处的近地轨道,并从2020年开始工作。该卫星仍在工作。
2D轨道图
3D轨道图
轨道高度分析图
轨道倾角分析图
轨道综合分析图
查看轨道综合分析图